[[[{"header":{"parameterUnit":"kt","parameterCategory":2,"dx":1,"dy":1,"la1":30.253999710083008,"la2":30.299108505249023,"lo1":-89.0895004272461,"lo2":-89.04439544677734,"nx":28,"ny":28,"refTime":"2022-10-02T21:00:00:Z","depth":0,"parameterNumber":1,"parameterNumberName":"U-component_of_WINDS"},"data":[-2.9967,-2.9968,-2.9947,-2.9938,-2.9917,-2.9907,-2.9896,-2.988,-2.9861,-2.9846,-2.9833,-2.9811,-2.9783,-2.9761,-2.9745,-2.9735,-2.973,-2.9746,-2.9731,-2.968,-2.9671,-2.9663,-2.9661,-2.9746,-2.9746,-2.9788,-2.9788,-2.9788,-2.9931,-2.9911,-2.99,-2.9875,-2.9865,-2.9836,-2.9814,-2.9807,-2.9798,-2.9776,-2.9762,-2.9746,-2.9731,-2.9696,-2.9677,-2.9676,-2.9661,-2.9672,-2.9671,-2.9667,-2.9612,-2.961,-2.9685,-2.9685,-2.9685,-2.9685,-2.9685,-2.9685,-2.9859,-2.9861,-2.9833,-2.982,-2.9802,-2.9785,-2.9782,-2.9755,-2.9744,-2.9722,-2.9698,-2.9687,-2.9659,-2.9626,-2.9609,-2.9599,-2.9582,-2.9587,-2.9588,-2.959,-2.9595,-2.9536,-2.9595,-2.9594,-2.9594,-2.9594,-2.9594,0,-2.9799,-2.9781,-2.9769,-2.9751,-2.9741,-2.9724,-2.9705,-2.9703,-2.9656,-2.9648,-2.9635,-2.9624,-2.9601,-2.9585,-2.9562,-2.9543,-2.9511,-2.9506,-2.9509,-2.952,-2.9533,-2.9526,-2.9435,-2.9504,-2.9503,-2.9503,-2.9502,-2.9502,-2.9724,-2.9729,-2.9689,-2.9683,-2.9668,-2.9659,-2.965,-2.9608,-2.96,-2.9569,-2.9572,-2.9557,-2.9542,-2.9524,-2.9491,-2.9473,-2.9457,-2.9486,-2.9454,-2.9465,-2.9456,-2.9456,-2.9456,-2.9493,-2.9494,-2.9495,-2.9496,0,-2.9684,-2.9648,-2.9648,-2.9608,-2.9598,-2.9604,-2.9569,-2.9569,-2.9542,-2.9538,-2.9534,-2.9492,-2.9479,-2.9441,-2.9419,-2.9399,-2.9408,-2.9394,-2.9417,-2.9412,-2.9433,-2.9432,-2.951,-2.9518,-2.9431,-2.9432,-2.9433,0,-2.9605,-2.9613,-2.9559,-2.9561,-2.9567,-2.9525,-2.9533,-2.951,-2.9486,-2.9482,-2.944,-2.9438,-2.9389,-2.938,-2.9351,-2.9352,-2.9348,-2.9333,-2.9325,-2.9336,-2.9338,-2.933,-2.9325,-2.9308,-2.9307,-2.9307,-2.9307,0,-2.9545,-2.9525,-2.9528,-2.9518,-2.9475,-2.9477,-2.946,-2.9432,-2.9423,-2.9405,-2.9398,-2.938,-2.937,-2.9356,-2.9319,-2.9299,-2.9319,-2.9284,-2.9303,-2.9304,-2.9309,-2.9309,-2.9389,-2.9306,-2.9306,-2.9306,-2.9306,0,-2.9475,-2.9459,-2.9469,-2.9432,-2.9428,-2.9431,-2.941,-2.9403,-2.9377,-2.9358,-2.9344,-2.9311,-2.9309,-2.9277,-2.9273,-2.9257,-2.9249,-2.9234,-2.9235,-2.9232,-2.9196,-2.9246,-2.9326,-2.9333,-2.923,-2.9229,-2.9229,0,-2.9416,-2.9416,-2.938,-2.939,-2.9385,-2.9338,-2.934,-2.9318,-2.9294,-2.9285,-2.9258,-2.9249,-2.9217,-2.9208,-2.9211,-2.9183,-2.9204,-2.9179,-2.9166,-2.9166,-2.9174,-2.9248,-2.9269,-2.9313,-2.922,-2.9221,-2.9222,0,-2.9365,-2.9314,-2.9318,-2.9304,-2.9268,-2.9264,-2.9266,-2.9247,-2.9244,-2.9224,-2.9223,-2.921,-2.9184,-2.9171,-2.9143,-2.9148,-2.9188,-2.912,-2.9119,-2.9133,-2.9213,-2.9233,-2.924,-2.9168,-2.9169,-2.9169,-2.9215,0,-2.9267,-2.9263,-2.9273,-2.9244,-2.9235,-2.924,-2.9199,-2.9194,-2.9168,-2.9142,-2.9141,-2.9113,-2.9094,-2.9093,-2.9067,-2.9092,-2.9081,-2.9055,-2.902,-2.9069,-2.9083,-2.9088,-2.9002,-2.9001,-2.9,-2.8999,0,0,-2.9218,-2.9211,-2.9171,-2.9171,-2.9161,-2.9112,-2.912,-2.9104,-2.9073,-2.9066,-2.9047,-2.9024,-2.9002,-2.9005,-2.9017,-2.901,-2.901,-2.8994,-2.9046,-2.9051,-2.9056,-2.9072,-2.9078,-2.8997,-2.8997,-2.8997,-2.8996,0,-2.9174,-2.9154,-2.9163,-2.9144,-2.9115,-2.9088,-2.909,-2.9053,-2.9037,-2.9036,-2.8995,-2.899,-2.8973,-2.8954,-2.8943,-2.8993,-2.8962,-2.899,-2.9031,-2.9037,-2.9044,-2.905,-2.9066,-2.9073,-2.8994,-2.8994,-2.8994,0,-2.9116,-2.9089,-2.9089,-2.9063,-2.9044,-2.904,-2.8993,-2.8991,-2.8988,-2.8934,-2.8934,-2.8913,-2.8885,-2.8893,-2.8896,-2.8878,-2.8921,-2.89,-2.8906,-2.8905,-2.8909,-2.8917,-2.8925,-2.8827,-2.8827,-2.8827,0,0,-2.9083,-2.9079,-2.9036,-2.9051,-2.9041,-2.9,-2.8994,-2.8967,-2.8943,-2.8934,-2.8906,-2.8884,-2.8873,-2.8868,-2.8855,-2.8871,-2.8861,-2.8882,-2.8889,-2.8896,-2.8899,-2.8904,-2.8913,-2.8825,-2.8825,-2.8825,0,0,-2.9067,-2.9018,-2.8996,-2.9007,-2.8987,-2.8945,-2.8955,-2.8926,-2.8911,-2.8906,-2.886,-2.8852,-2.8859,-2.884,-2.8824,-2.8842,-2.8808,-2.8811,-2.8854,-2.8864,-2.8871,-2.8875,-2.8772,0,0,0,0,0,-2.9001,-2.9024,-2.9004,-2.9,-2.8967,-2.8956,-2.8952,-2.8914,-2.8891,-2.8899,-2.8871,-2.8839,-2.8822,-2.8806,-2.8803,-2.8821,-2.8805,-2.8808,-2.8812,-2.8871,-2.8881,-2.8889,0,0,0,0,0,0,-2.8999,-2.8994,-2.9003,-2.8964,-2.8956,-2.8955,-2.8907,-2.8898,-2.8889,-2.8883,-2.8845,-2.8838,-2.8805,-2.8805,-2.8803,-2.8821,-2.8773,-2.8806,-2.8809,-2.8812,-2.8874,-2.8883,-2.889,0,0,0,0,0,-2.8997,-2.8993,-2.895,-2.8963,-2.8956,-2.8912,-2.8906,-2.8898,-2.889,-2.8847,-2.8838,-2.8862,-2.8807,-2.8802,-2.8804,-2.8823,-2.8774,-2.8773,-2.8808,-2.8811,-2.8813,-2.8878,0,0,0,0,0,0,-2.8996,-2.8985,-2.8948,-2.8944,-2.8951,-2.8911,-2.8903,-2.8898,-2.8854,-2.8846,-2.8861,-2.8857,-2.8808,-2.8804,-2.88,-2.8826,-2.8775,-2.8775,-2.8774,-2.881,-2.8812,-2.8814,0,0,0,0,0,0,-2.8987,-2.8982,-2.8946,-2.8933,-2.8928,-2.8911,-2.8904,-2.89,-2.8854,-2.8871,-2.8866,-2.886,-2.8813,-2.8806,-2.8803,-2.8798,-2.8776,-2.8776,-2.8775,-2.8775,-2.8812,-2.8813,0,0,0,0,0,0,-2.8984,-2.898,-2.8934,-2.893,-2.8925,-2.8883,-2.8906,-2.8875,-2.8844,-2.8873,-2.884,-2.8838,-2.8816,-2.8812,-2.8805,-2.8802,-2.8799,-2.8776,-2.8776,-2.8775,-2.8775,0,0,0,0,0,0,0,-2.8982,-2.9017,-2.8969,-2.8927,-2.8923,-2.8912,-2.8911,-2.891,-2.8843,-2.8842,-2.884,-2.8839,-2.8781,-2.878,-2.8779,-2.8805,0,0,-2.8776,-2.8776,0,0,0,0,0,0,0,0,-2.9018,-2.9017,-2.8969,-2.8968,-2.8967,-2.8912,-2.8911,-2.891,-2.8843,-2.8842,-2.8841,-2.8839,-2.8781,-2.878,-2.8779,0,0,0,0,0,0,0,0,0,0,0,0,0,0,0,-2.8968,-2.8968,0,-2.8912,-2.8911,-2.891,-2.8843,-2.8842,-2.8841,-2.884,-2.8781,-2.878,-2.8779,0,0,0,0,0,0,0,0,0,0,0,0,0,0,0,0,0,0,0,0,0,0,0,0,0,0,0,0,0,0,0,0,0,0,0,0,0,0,0,0,0,0,0,0,0,0,0,0,0,0,0,0,0,0,0,0,0,0,0,0,0,0,0,0,0,0,0,0,0]}],[{"header":{"parameterUnit":"kt","parameterCategory":2,"dx":1,"dy":1,"la1":30.253999710083008,"la2":30.299108505249023,"lo1":-89.0895004272461,"lo2":-89.04439544677734,"nx":28,"ny":28,"refTime":"2022-10-02T21:00:00:Z","depth":0,"parameterNumber":2,"parameterNumberName":"V-component_of_WINDS"},"data":[-4.9553,-4.9483,-4.9471,-4.9383,-4.9356,-4.9293,-4.9266,-4.9228,-4.9193,-4.9114,-4.9065,-4.9039,-4.8995,-4.893,-4.8873,-4.8862,-4.8839,-4.8827,-4.8816,-4.8886,-4.8894,-4.8902,-4.892,-4.8823,-4.8822,-4.8746,-4.8746,-4.8745,-4.9614,-4.9588,-4.9537,-4.9478,-4.9435,-4.944,-4.9391,-4.9353,-4.9295,-4.925,-4.92,-4.9126,-4.9064,-4.9021,-4.8957,-4.8921,-4.8917,-4.8905,-4.8907,-4.89,-4.8974,-4.8993,-4.891,-4.891,-4.891,-4.891,-4.891,-4.891,-4.9722,-4.968,-4.9636,-4.958,-4.9545,-4.9505,-4.946,-4.9432,-4.9378,-4.9313,-4.9301,-4.9232,-4.9181,-4.9092,-4.9057,-4.9001,-4.901,-4.899,-4.8984,-4.898,-4.8979,-4.9097,-4.8988,-4.8989,-4.8989,-4.8989,-4.8989,0,-4.9796,-4.9787,-4.9736,-4.9681,-4.9639,-4.9593,-4.9547,-4.9519,-4.9488,-4.9444,-4.9379,-4.9337,-4.9254,-4.9188,-4.9122,-4.9088,-4.9081,-4.9077,-4.9064,-4.907,-4.9086,-4.9079,-4.9202,-4.9079,-4.908,-4.9081,-4.9081,-4.9081,-4.9904,-4.9855,-4.9799,-4.9765,-4.9736,-4.968,-4.9642,-4.9619,-4.9579,-4.9516,-4.9477,-4.9411,-4.9357,-4.925,-4.9208,-4.9143,-4.9139,-4.9095,-4.9128,-4.9139,-4.914,-4.9143,-4.9139,-4.9089,-4.9088,-4.9087,-4.9086,0,-4.9967,-4.9941,-4.9858,-4.9805,-4.9791,-4.9739,-4.9692,-4.9645,-4.9619,-4.9551,-4.9533,-4.949,-4.9423,-4.9388,-4.9302,-4.9285,-4.9197,-4.9194,-4.9218,-4.9215,-4.9174,-4.9179,-4.904,-4.9021,-4.912,-4.9119,-4.9119,0,-5.0049,-4.9983,-4.9948,-4.9901,-4.9827,-4.9805,-4.9731,-4.9701,-4.9656,-4.9602,-4.9591,-4.9539,-4.9502,-4.9445,-4.942,-4.9341,-4.9324,-4.9306,-4.93,-4.9307,-4.931,-4.9283,-4.9288,-4.9286,-4.9287,-4.9288,-4.9288,0,-5.015,-5.0051,-4.9975,-4.9948,-4.9881,-4.9845,-4.9815,-4.9762,-4.9723,-4.9667,-4.9641,-4.9575,-4.9538,-4.9487,-4.9456,-4.948,-4.9358,-4.9384,-4.934,-4.934,-4.9312,-4.9315,-4.9202,-4.9289,-4.929,-4.929,-4.929,0,-5.021,-5.0158,-5.005,-4.9996,-4.997,-4.9917,-4.9853,-4.98,-4.9745,-4.9727,-4.968,-4.9667,-4.9594,-4.9624,-4.9523,-4.9564,-4.9529,-4.9505,-4.9501,-4.9491,-4.9525,-4.9468,-4.9364,-4.9352,-4.9485,-4.9486,-4.9488,0,-5.0335,-5.0218,-5.0197,-5.0093,-5.0034,-5.0028,-4.9968,-4.9919,-4.989,-4.9834,-4.98,-4.9733,-4.9747,-4.9721,-4.9675,-4.9636,-4.9582,-4.9642,-4.9557,-4.9554,-4.9575,-4.9479,-4.9473,-4.9391,-4.9508,-4.9506,-4.9504,0,-5.0428,-5.0348,-5.033,-5.0299,-5.0231,-5.0179,-5.011,-5.004,-5.0004,-4.9947,-4.9888,-4.979,-4.9799,-4.9753,-4.9733,-4.9688,-4.9618,-4.97,-4.9698,-4.9688,-4.9514,-4.951,-4.9496,-4.9614,-4.9612,-4.961,-4.952,0,-5.053,-5.0465,-5.0416,-5.0342,-5.0297,-5.0227,-5.0192,-5.0149,-5.0137,-5.0107,-5.0017,-4.9961,-4.9883,-4.9857,-4.9841,-4.9748,-4.9757,-4.9764,-4.9789,-4.9726,-4.9695,-4.9683,-4.9838,-4.9839,-4.9839,-4.9839,0,0,-5.0655,-5.0562,-5.0539,-5.0471,-5.0432,-5.0424,-5.0353,-5.0312,-5.0227,-5.0199,-5.0213,-5.0068,-5.0019,-4.9912,-4.989,-4.9857,-4.9837,-4.9858,-4.9756,-4.9747,-4.9738,-4.9706,-4.9694,-4.984,-4.984,-4.984,-4.984,0,-5.0685,-5.0644,-5.0575,-5.0533,-5.047,-5.0441,-5.0425,-5.0358,-5.0335,-5.0245,-5.0236,-5.0175,-5.0056,-5.0008,-4.9968,-4.9872,-4.9865,-4.985,-4.9813,-4.9761,-4.9752,-4.9743,-4.971,-4.9699,-4.9841,-4.9841,-4.9841,0,-5.0771,-5.0725,-5.0687,-5.0596,-5.0552,-5.0488,-5.0508,-5.0438,-5.0389,-5.0376,-5.0287,-5.0249,-5.0179,-5.0082,-5.0036,-5.0047,-4.9894,-4.9933,-4.9929,-4.9922,-4.987,-4.9858,-4.9848,-4.9983,-4.9984,-4.9985,0,0,-5.0801,-5.074,-5.0679,-5.0599,-5.0573,-5.0528,-5.0489,-5.0472,-5.0413,-5.0389,-5.034,-5.028,-5.0211,-5.0165,-5.0097,-4.9995,-4.9978,-4.9952,-4.9945,-4.994,-4.9931,-4.9877,-4.9865,-4.9987,-4.9987,-4.9987,0,0,-5.0813,-5.0742,-5.0741,-5.0644,-5.0591,-5.0522,-5.0473,-5.0468,-5.0404,-5.0407,-5.037,-5.0352,-5.0259,-5.0221,-5.0261,-5.0105,-5.013,-5.0119,-5.0133,-5.0124,-5.0117,-5.0128,-5.0268,0,0,0,0,0,-5.0825,-5.0752,-5.0752,-5.073,-5.061,-5.0523,-5.0507,-5.0478,-5.0499,-5.0461,-5.042,-5.0415,-5.0236,-5.0271,-5.0247,-5.0202,-5.0021,-5.0015,-5.0009,-5.0003,-4.9994,-4.9986,0,0,0,0,0,0,-5.0816,-5.079,-5.0754,-5.0683,-5.0656,-5.0525,-5.0554,-5.0544,-5.0502,-5.0503,-5.0423,-5.0412,-5.0382,-5.028,-5.0259,-5.0217,-5.0275,-5.0018,-5.0013,-5.0009,-5.0,-4.9992,-4.9986,0,0,0,0,0,-5.0809,-5.0788,-5.0603,-5.0684,-5.066,-5.0604,-5.0557,-5.0548,-5.0515,-5.0449,-5.0438,-5.0497,-5.0382,-5.0362,-5.0268,-5.0227,-5.0289,-5.0281,-5.0015,-5.0011,-5.0007,-4.9996,0,0,0,0,0,0,-5.0804,-5.0778,-5.0598,-5.0589,-5.0709,-5.0611,-5.0595,-5.0552,-5.0462,-5.0451,-5.0521,-5.0523,-5.0381,-5.0366,-5.035,-5.0233,-5.0301,-5.0293,-5.0288,-5.0012,-5.0009,-5.0006,0,0,0,0,0,0,-5.0789,-5.0771,-5.0594,-5.0627,-5.0622,-5.0617,-5.0603,-5.0516,-5.0461,-5.0539,-5.0538,-5.0523,-5.0401,-5.0368,-5.0356,-5.0221,-5.0309,-5.0302,-5.0297,-5.0294,-5.0009,-5.0007,0,0,0,0,0,0,-5.0781,-5.0765,-5.0629,-5.0626,-5.0621,-5.0524,-5.0539,-5.0416,-5.0496,-5.0543,-5.0501,-5.0504,-5.0403,-5.0391,-5.036,-5.023,-5.0224,-5.0309,-5.0304,-5.03,-5.0298,0,0,0,0,0,0,0,-5.0774,-5.0888,-5.0649,-5.0624,-5.062,-5.0511,-5.0509,-5.0507,-5.0496,-5.0499,-5.0501,-5.0503,-5.0351,-5.0343,-5.0335,-5.0238,0,0,-5.031,-5.0306,0,0,0,0,0,0,0,0,-5.0894,-5.0889,-5.0649,-5.0647,-5.0645,-5.0511,-5.0509,-5.0507,-5.0497,-5.0498,-5.05,-5.0502,-5.0349,-5.0343,-5.0336,0,0,0,0,0,0,0,0,0,0,0,0,0,0,0,-5.0648,-5.0647,0,-5.0511,-5.0509,-5.0508,-5.0497,-5.0498,-5.05,-5.0501,-5.0347,-5.0342,-5.0337,0,0,0,0,0,0,0,0,0,0,0,0,0,0,0,0,0,0,0,0,0,0,0,0,0,0,0,0,0,0,0,0,0,0,0,0,0,0,0,0,0,0,0,0,0,0,0,0,0,0,0,0,0,0,0,0,0,0,0,0,0,0,0,0,0,0,0,0,0]}]]]